Tracking 32139 objects as of 18-Nov-2025
HD Live streaming from Space Station
objects crossing your sky now

STARLINK-35178

Track STARLINK-35178 now!
10-day predictions
STARLINK-35178 is classified as:


NORAD ID: 65610
Int'l Code: 2025-207U
Perigee: 453.9 km
Apogee: 456.3 km
Inclination: 97.6 °
Period: 93.5 minutes
Semi major axis: 6826 km
RCS: Unknown
Launch date: September 13, 2025
Source: United States (US)
Launch site: AIR FORCE EASTERN TEST RANGE (AFETR)
Your satellite tracking list
Your tracking list is empty




NASA's NSSDC Master Catalog

Two Line Element Set (TLE):
1 65610U 25207U   25321.62986818  .00052262  00000-0  13318-2 0  9990
2 65610  97.6041  26.4004 0001804  78.7252 281.4195 15.39372363 11281
Source of the keplerian elements: AFSPC